Location: Caltech
(34.1382°N, 118.1253°W)
Time: 04:28:40
(UTC-07:00)

ITAMSAT 1 - Visible Passes

Search period start: 31 July 2014 00:00
Search period end: 10 August 2014 00:00
Orbit: 785 x 798 km, 98.7° (Epoch: 30 July)

Date Brightness Start Highest point End Pass type
(mag) Time Alt. Az. Time Alt. Az. Time Alt. Az.
31 Jul 7.8 03:04:01 10° NNE 03:08:38 70° NE 03:08:38 70° NE visible
31 Jul 9.8 04:47:05 10° NW 04:47:57 10° WNW 04:48:50 10° WNW visible
01 Aug 8.8 02:35:14 10° NNE 02:39:08 37° ENE 02:39:08 37° ENE visible
01 Aug 9.1 04:15:31 10° NNW 04:19:15 21° WNW 04:19:53 20° WNW visible
02 Aug 9.8 02:07:04 10° NE 02:09:38 19° ENE 02:09:38 19° ENE visible
02 Aug 8.3 03:45:39 10° N 03:50:23 39° WNW 03:50:23 39° WNW visible
03 Aug 7.8 03:16:18 10° N 03:20:52 67° NNW 03:20:52 67° NNW visible
04 Aug 8.5 02:47:20 10° NNE 02:51:22 46° ENE 02:51:22 46° ENE visible
04 Aug 9.4 04:28:24 10° NNW 04:31:23 16° WNW 04:32:07 15° WNW visible
05 Aug 9.5 02:18:51 10° NE 02:21:51 24° ENE 02:21:51 24° ENE visible
05 Aug 8.7 03:58:11 10° N 04:02:36 30° WNW 04:02:36 30° WNW visible
06 Aug 10.2 01:51:26 10° ENE 01:52:21 12° ENE 01:52:21 12° ENE visible
06 Aug 8.0 03:28:38 10° N 03:33:06 54° NW 03:33:06 54° NW visible
07 Aug 8.2 02:59:31 10° NNE 03:03:35 54° NE 03:03:35 54° NE visible
07 Aug 9.7 04:41:43 10° NW 04:43:30 12° WNW 04:44:20 11° WNW visible
08 Aug 9.2 02:30:48 10° NNE 02:34:04 30° ENE 02:34:04 30° ENE visible
08 Aug 9.0 04:10:49 10° NNW 04:14:47 23° WNW 04:14:49 23° WNW visible
09 Aug 10.0 02:02:47 10° NE 02:04:34 16° ENE 02:04:34 16° ENE visible
09 Aug 8.3 03:41:03 10° N 03:45:19 41° NW 03:45:19 41° NW visible
